Stündliche Wetter Kyyazh

Heute, 14 Mai, Freitag

Zeit Temperatur Niederschläge Wind Luftdruck Luftfeuchtigkeit
00:00 +11°C° 0 mm 4 m/S 735 mmHg 95%
01:00 +11°C° 0 mm 4 m/S 735 mmHg 95%
02:00 +9°C° 0 mm 5 m/S 735 mmHg 95%
03:00 +10°C° 0 mm 4 m/S 735 mmHg 95%
04:00 +10°C° 0 mm 4 m/S 735 mmHg 95%
05:00 +10°C° 0 mm 3 m/S 735 mmHg 95%
06:00 +11°C° 0 mm 3 m/S 735 mmHg 91%
07:00 +12°C° 0 mm 3 m/S 735 mmHg 88%
08:00 +13°C° 0 mm 4 m/S 735 mmHg 84%
09:00 +14°C° 0.2 mm 4 m/S 735 mmHg 78%
10:00 +16°C° 0.2 mm 5 m/S 735 mmHg 72%
11:00 +17°C° 0.2 mm 5 m/S 736 mmHg 66%
12:00 +17°C° 0.4 mm 5 m/S 736 mmHg 66%
13:00 +17°C° 0.4 mm 5 m/S 736 mmHg 66%
14:00 +19°C° 0.4 mm 5 m/S 736 mmHg 65%
15:00 +17°C° 0.3 mm 5 m/S 736 mmHg 67%
16:00 +17°C° 0.3 mm 5 m/S 736 mmHg 69%
17:00 +17°C° 0.3 mm 5 m/S 736 mmHg 71%
18:00 +15°C° 0.1 mm 4 m/S 736 mmHg 77%
19:00 +13°C° 0.1 mm 4 m/S 737 mmHg 84%
20:00 +11°C° 0.1 mm 4 m/S 737 mmHg 90%
21:00 +11°C° 0 mm 4 m/S 737 mmHg 91%
22:00 +11°C° 0 mm 3 m/S 737 mmHg 92%
23:00 +11°C° 0 mm 3 m/S 737 mmHg 93%

Morgen, 15 Mai, Samstag

Zeit Temperatur Niederschläge Wind Luftdruck Luftfeuchtigkeit
00:00 +11°C° 0.1 mm 3 m/S 737 mmHg 94%
01:00 +11°C° 0.1 mm 3 m/S 737 mmHg 95%
02:00 +12°C° 0.1 mm 3 m/S 737 mmHg 96%
03:00 +12°C° 0.2 mm 4 m/S 738 mmHg 96%
04:00 +11°C° 0.2 mm 4 m/S 738 mmHg 96%
05:00 +10°C° 0.2 mm 5 m/S 738 mmHg 96%
06:00 +10°C° 0.1 mm 5 m/S 739 mmHg 95%
07:00 +10°C° 0.1 mm 5 m/S 739 mmHg 94%
08:00 +10°C° 0.1 mm 5 m/S 740 mmHg 93%
09:00 +12°C° 0 mm 4 m/S 740 mmHg 89%
10:00 +12°C° 0 mm 4 m/S 740 mmHg 85%
11:00 +13°C° 0 mm 4 m/S 741 mmHg 81%
12:00 +14°C° 0 mm 4 m/S 741 mmHg 78%
13:00 +14°C° 0 mm 4 m/S 741 mmHg 74%
14:00 +15°C° 0 mm 5 m/S 741 mmHg 71%
15:00 +15°C° 0 mm 4 m/S 741 mmHg 69%
16:00 +16°C° 0 mm 3 m/S 741 mmHg 67%
17:00 +17°C° 0 mm 3 m/S 741 mmHg 65%
18:00 +16°C° 0 mm 2 m/S 741 mmHg 67%
19:00 +15°C° 0 mm 2 m/S 741 mmHg 70%
20:00 +14°C° 0 mm 1 m/S 741 mmHg 73%
21:00 +13°C° 0 mm 1 m/S 741 mmHg 77%
22:00 +12°C° 0 mm 2 m/S 741 mmHg 81%
23:00 +10°C° 0 mm 2 m/S 741 mmHg 86%

übermorgen, 16 Mai, Sonntag

Zeit Temperatur Niederschläge Wind Luftdruck Luftfeuchtigkeit
00:00 +10°C° 0 mm 2 m/S 741 mmHg 86%
01:00 +9°C° 0 mm 2 m/S 741 mmHg 87%
02:00 +9°C° 0 mm 2 m/S 741 mmHg 88%
03:00 +9°C° 0 mm 2 m/S 741 mmHg 88%
04:00 +9°C° 0 mm 3 m/S 741 mmHg 88%
05:00 +9°C° 0 mm 3 m/S 741 mmHg 88%
06:00 +11°C° 0 mm 3 m/S 741 mmHg 84%
07:00 +13°C° 0 mm 4 m/S 741 mmHg 80%
08:00 +14°C° 0 mm 4 m/S 741 mmHg 76%
09:00 +16°C° 0 mm 5 m/S 740 mmHg 73%
10:00 +17°C° 0 mm 5 m/S 740 mmHg 69%
11:00 +20°C° 0 mm 5 m/S 740 mmHg 65%
12:00 +20°C° 0.3 mm 5 m/S 740 mmHg 64%
13:00 +21°C° 0.3 mm 5 m/S 739 mmHg 63%
14:00 +22°C° 0.3 mm 5 m/S 739 mmHg 61%
15:00 +21°C° 0.9 mm 5 m/S 739 mmHg 66%
16:00 +20°C° 0.9 mm 5 m/S 738 mmHg 71%
17:00 +19°C° 0.9 mm 4 m/S 738 mmHg 76%
18:00 +17°C° 0.7 mm 3 m/S 738 mmHg 81%
19:00 +14°C° 0.7 mm 3 m/S 738 mmHg 86%
20:00 +13°C° 0.7 mm 2 m/S 738 mmHg 91%
21:00 +13°C° 0.1 mm 2 m/S 739 mmHg 91%
22:00 +13°C° 0.1 mm 2 m/S 739 mmHg 91%
23:00 +13°C° 0.1 mm 1 m/S 739 mmHg 90%

17 Mai, Montag

Zeit Temperatur Niederschläge Wind Luftdruck Luftfeuchtigkeit
00:00 +13°C° 0.4 mm 1 m/S 739 mmHg 92%
01:00 +13°C° 0.4 mm 1 m/S 739 mmHg 95%
02:00 +13°C° 0.4 mm 1 m/S 739 mmHg 97%
03:00 +13°C° 0.2 mm 2 m/S 739 mmHg 97%
04:00 +13°C° 0.2 mm 2 m/S 739 mmHg 97%
05:00 +12°C° 0.2 mm 3 m/S 739 mmHg 97%
06:00 +12°C° 0 mm 3 m/S 740 mmHg 92%
07:00 +13°C° 0 mm 3 m/S 740 mmHg 88%
08:00 +14°C° 0 mm 3 m/S 740 mmHg 84%
09:00 +16°C° 0 mm 2 m/S 740 mmHg 77%
10:00 +17°C° 0 mm 2 m/S 740 mmHg 69%
11:00 +18°C° 0 mm 2 m/S 740 mmHg 62%
12:00 +19°C° 0 mm 2 m/S 740 mmHg 58%
13:00 +20°C° 0 mm 2 m/S 740 mmHg 54%
14:00 +20°C° 0 mm 2 m/S 740 mmHg 51%
15:00 +20°C° 0 mm 2 m/S 739 mmHg 50%
16:00 +20°C° 0 mm 2 m/S 739 mmHg 50%
17:00 +21°C° 0 mm 1 m/S 739 mmHg 50%
18:00 +20°C° 0 mm 1 m/S 739 mmHg 56%
19:00 +18°C° 0 mm 1 m/S 739 mmHg 62%
20:00 +15°C° 0 mm 1 m/S 738 mmHg 69%
21:00 +15°C° 0 mm 1 m/S 738 mmHg 69%
22:00 +14°C° 0 mm 1 m/S 738 mmHg 70%
23:00 +14°C° 0 mm 1 m/S 738 mmHg 71%

18 Mai, Dienstag

Zeit Temperatur Niederschläge Wind Luftdruck Luftfeuchtigkeit
00:00 +13°C° 0.2 mm 1 m/S 738 mmHg 76%
01:00 +13°C° 0.2 mm 2 m/S 738 mmHg 82%
02:00 +12°C° 0.2 mm 3 m/S 738 mmHg 88%
03:00 +13°C° 1 mm 2 m/S 738 mmHg 91%
04:00 +13°C° 1 mm 2 m/S 738 mmHg 94%
05:00 +12°C° 1 mm 1 m/S 738 mmHg 98%
06:00 +12°C° 1.4 mm 2 m/S 738 mmHg 97%
07:00 +12°C° 1.4 mm 2 m/S 738 mmHg 97%
08:00 +12°C° 1.4 mm 2 m/S 738 mmHg 97%
09:00 +12°C° 0.5 mm 3 m/S 739 mmHg 93%
10:00 +12°C° 0.5 mm 3 m/S 739 mmHg 90%
11:00 +13°C° 0.5 mm 3 m/S 739 mmHg 86%
12:00 +14°C° 0.4 mm 4 m/S 739 mmHg 79%
13:00 +15°C° 0.4 mm 4 m/S 740 mmHg 73%
14:00 +16°C° 0.4 mm 5 m/S 740 mmHg 66%
15:00 +16°C° 0.2 mm 5 m/S 740 mmHg 66%
16:00 +17°C° 0.2 mm 4 m/S 740 mmHg 66%
17:00 +17°C° 0.2 mm 4 m/S 740 mmHg 66%
18:00 +14°C° 0.1 mm 4 m/S 740 mmHg 73%
19:00 +13°C° 0.1 mm 3 m/S 740 mmHg 79%
20:00 +12°C° 0.1 mm 2 m/S 741 mmHg 85%
21:00 +12°C° 0 mm 2 m/S 741 mmHg 87%
22:00 +10°C° 0 mm 2 m/S 741 mmHg 89%
23:00 +9°C° 0 mm 2 m/S 741 mmHg 91%

19 Mai, Mittwoch

Zeit Temperatur Niederschläge Wind Luftdruck Luftfeuchtigkeit
00:00 +9°C° 0 mm 2 m/S 741 mmHg 91%
01:00 +9°C° 0 mm 2 m/S 741 mmHg 91%
02:00 +8°C° 0 mm 2 m/S 741 mmHg 91%
03:00 +8°C° 0 mm 2 m/S 742 mmHg 91%
04:00 +8°C° 0 mm 2 m/S 742 mmHg 91%
05:00 +8°C° 0 mm 2 m/S 742 mmHg 92%
06:00 +10°C° 0 mm 2 m/S 742 mmHg 87%
07:00 +12°C° 0 mm 2 m/S 743 mmHg 83%
08:00 +13°C° 0 mm 2 m/S 743 mmHg 78%
09:00 +13°C° 0.2 mm 3 m/S 743 mmHg 73%
10:00 +14°C° 0.2 mm 3 m/S 743 mmHg 68%
11:00 +16°C° 0.2 mm 3 m/S 743 mmHg 64%
12:00 +17°C° 0.2 mm 3 m/S 743 mmHg 60%
13:00 +17°C° 0.2 mm 3 m/S 743 mmHg 57%
14:00 +18°C° 0.2 mm 3 m/S 743 mmHg 54%
15:00 +18°C° 0.1 mm 3 m/S 743 mmHg 57%
16:00 +17°C° 0.1 mm 3 m/S 743 mmHg 60%
17:00 +17°C° 0.1 mm 3 m/S 743 mmHg 64%
18:00 +14°C° 0 mm 3 m/S 744 mmHg 69%
19:00 +13°C° 0 mm 3 m/S 744 mmHg 73%
20:00 +12°C° 0 mm 3 m/S 744 mmHg 78%
21:00 +11°C° 0 mm 3 m/S 745 mmHg 80%
22:00 +10°C° 0 mm 3 m/S 745 mmHg 82%
23:00 +10°C° 0 mm 3 m/S 745 mmHg 84%
Mehr zeigen

Wir brauchen deine Erlaubnis

Meteoprog und unser Service Anbieter werden persönliche Daten aufbewahren, so wie Cookies, Geräte Bezeichnung oder ähnliche Technologien von deinem Gerät und Prozess, so wie Persönliche Daten Inhalte und Werbungen, genauso wie social Media und den Verkehr zu analysieren.

  • Aufbewahrung und/oder Zugang zu deiner Geräte Informationen.

    Cookies, Geräte Bezeichnung oder andere Informationen, können aufbewahrt oder Zugang zu deinem Gerät erhalten, für den Grund, der oben angegeben wird.

  • Personalisierte Werbung und Inhalte, Messungen, Einblick in das Publikum und Produkt Entwicklung.

    Werbungen und Inhalte können personalisiert werden, basierend auf ein Profil. Mehr Daten können besser personalisierte Werbungen und Inhalte hinzufügen. Werbung und Inhalte können gezeigt und gemessen werden. Einblicke über das Publikum, welche die Werbung gesehen haben und den Inhalt, können abgeleitet werden. So wie Daten können genutzt werden, um es zu verbessern oder die Benutzer Erfahrung zu verbessern das System und die Software.

Wenn du “Ich stimme zu” klickst, erlaubst du uns, die Cookies zu benutzen die Geräte Bezeichnung, den Web oder ähnliche Technologien zu benutzen. Deine Settings, können in deinem Gerät bei deinem Browser geändert werden.

Für den bestimmten Zweck, berechtigten Interessen beruhen darauf, mehr als auf den Inhalt. Du kannst mehr darüber in unseren Privaten und Cookie Politik lesen.